This is the latest recevied weather packets stored in our database for station/object KQ4NAL. If no packets are shown the sender has not sent any weather packets the latest 1 day(s).
| Time | Temp. | Humidity | Pressure | Rain* | Wind** | Luminosity | Snow |
|---|---|---|---|---|---|---|---|
| 1778007981 | 21.11° C | 68% | 1009.7 hPa | 0 mm | 3.13 m/s, 204° | 291 W/m² | - |
| 1778007675 | 21.11° C | 67% | 1009.5 hPa | 0 mm | 3.13 m/s, 223° | 332 W/m² | - |
| 1778007373 | 21.11° C | 69% | 1009.5 hPa | 0 mm | 2.68 m/s, 179° | 336 W/m² | - |
| 1778007069 | 20.56° C | 68% | 1009.7 hPa | 0 mm | 2.24 m/s, 199° | 263 W/m² | - |
| 1778006765 | 20.56° C | 69% | 1009.8 hPa | 0 mm | 4.02 m/s, 240° | 206 W/m² | - |
| 1778006462 | 20.56° C | 68% | 1009.8 hPa | 0 mm | 4.47 m/s, 216° | 157 W/m² | - |
| 1778006159 | 20.56° C | 69% | 1009.8 hPa | 0 mm | 2.24 m/s, 173° | 146 W/m² | - |
| 1778005857 | 20.56° C | 68% | 1010.1 hPa | 0 mm | 4.02 m/s, 224° | 161 W/m² | - |
| 1778005553 | 20.56° C | 68% | 1010.2 hPa | 0 mm | 4.92 m/s, 238° | 204 W/m² | - |
| 1778005250 | 20.56° C | 68% | 1010.1 hPa | 0 mm | 3.13 m/s, 229° | 220 W/m² | - |
| 1778004946 | 20.56° C | 68% | 1010.2 hPa | 0 mm | 2.24 m/s, 12° | 210 W/m² | - |
| 1778004644 | 20.56° C | 67% | 1010.6 hPa | 0 mm | 4.02 m/s, 172° | 251 W/m² | - |
| 1778004339 | 20.56° C | 67% | 1010.4 hPa | 0 mm | 4.02 m/s, 224° | 298 W/m² | - |
| 1778004038 | 20.56° C | 68% | 1010.5 hPa | 0 mm | 4.92 m/s, 192° | 288 W/m² | - |
| 1778003737 | 20.56° C | 68% | 1010.4 hPa | 0 mm | 4.92 m/s, 226° | 247 W/m² | - |
| 1778003435 | 20.56° C | 67% | 1010.4 hPa | 0 mm | 2.68 m/s, 232° | 256 W/m² | - |
| 1778003132 | 20.56° C | 67% | 1010.4 hPa | 0 mm | 4.02 m/s, 181° | 269 W/m² | - |
| 1778002827 | 20.56° C | 67% | 1010.6 hPa | 0 mm | 3.13 m/s, 199° | 270 W/m² | - |
| 1778002525 | 20.56° C | 67% | 1010.3 hPa | 0 mm | 4.02 m/s, 208° | 281 W/m² | - |
| 1778002221 | 20.56° C | 67% | 1010.3 hPa | 0 mm | 2.24 m/s, 142° | 277 W/m² | - |
| 1778001919 | 20.56° C | 66% | 1010.6 hPa | 0 mm | 4.02 m/s, 212° | 323 W/m² | - |
| 1778001615 | 20.56° C | 68% | 1010.6 hPa | 0 mm | 3.13 m/s, 215° | 338 W/m² | - |
| 1778001310 | 20.56° C | 67% | 1010.5 hPa | 0 mm | 3.58 m/s, 217° | 337 W/m² | - |
| 1778001008 | 20.56° C | 66% | 1010.4 hPa | 0 mm | 3.13 m/s, 296° | 295 W/m² | - |
| 1778000704 | 20.56° C | 67% | 1010.4 hPa | 0 mm | 2.24 m/s, 200° | 234 W/m² | - |
* Rain latest hour (hover to see other rain measurements)
** Current wind speed in m/s (hover to see current wind gust speed)